Year,Month,Day,Hour,Minute,Value (Times are PST for windspeed in km/hr)
2022,04,17,00,00,2.70
2022,04,17,00,01,1.50
2022,04,17,00,02,3.20
2022,04,17,00,03,2.60
2022,04,17,00,04,2.30
2022,04,17,00,05,3.90
2022,04,17,00,06,8.60
2022,04,17,00,07,2.70
2022,04,17,00,08,4.30
2022,04,17,00,09,3.60
2022,04,17,00,10,2.00
2022,04,17,00,11,2.50
2022,04,17,00,12,4.70
2022,04,17,00,13,3.60
2022,04,17,00,14,5.60
2022,04,17,00,15,2.40
2022,04,17,00,16,4.10
2022,04,17,00,17,3.30
2022,04,17,00,18,4.70
2022,04,17,00,19,8.70
2022,04,17,00,20,9.40
2022,04,17,00,21,7.30
2022,04,17,00,22,8.30
2022,04,17,00,23,9.50
2022,04,17,00,24,8.70
2022,04,17,00,25,7.00
2022,04,17,00,26,8.60
2022,04,17,00,27,8.10
2022,04,17,00,28,8.10
2022,04,17,00,29,6.70
2022,04,17,00,30,6.20
2022,04,17,00,31,5.60
2022,04,17,00,32,6.90
2022,04,17,00,33,4.10
2022,04,17,00,34,5.50
2022,04,17,00,35,6.40
2022,04,17,00,36,6.60
2022,04,17,00,37,4.90
2022,04,17,00,38,4.40
2022,04,17,00,39,4.80
2022,04,17,00,40,6.00
2022,04,17,00,41,6.70
2022,04,17,00,42,7.10
2022,04,17,00,43,3.80
2022,04,17,00,44,5.80
2022,04,17,00,45,9.80
2022,04,17,00,46,7.20
2022,04,17,00,47,10.70
2022,04,17,00,48,6.40
2022,04,17,00,49,8.10
2022,04,17,00,50,7.60
2022,04,17,00,51,8.30
2022,04,17,00,52,8.10
2022,04,17,00,53,6.60
2022,04,17,00,54,8.00
2022,04,17,00,55,8.50
2022,04,17,00,56,8.30
2022,04,17,00,57,8.00
2022,04,17,00,58,9.00
2022,04,17,00,59,4.90
2022,04,17,01,00,7.60
2022,04,17,01,01,6.60
2022,04,17,01,02,6.20
2022,04,17,01,03,4.00
2022,04,17,01,04,5.20
2022,04,17,01,05,5.30
2022,04,17,01,06,6.40
2022,04,17,01,07,5.50
2022,04,17,01,08,6.10
2022,04,17,01,09,7.20
2022,04,17,01,10,3.20
2022,04,17,01,11,2.60
2022,04,17,01,12,3.20
2022,04,17,01,13,2.40
2022,04,17,01,14,1.20
2022,04,17,01,15,1.30
2022,04,17,01,16,2.10
2022,04,17,01,17,4.00
2022,04,17,01,18,3.40
2022,04,17,01,19,2.10
2022,04,17,01,20,2.70
2022,04,17,01,21,5.50
2022,04,17,01,22,1.40
2022,04,17,01,23,3.20
2022,04,17,01,24,4.90
2022,04,17,01,25,3.80
2022,04,17,01,26,6.60
2022,04,17,01,27,4.60
2022,04,17,01,28,5.70
2022,04,17,01,29,7.50
2022,04,17,01,30,3.10
2022,04,17,01,31,3.00
2022,04,17,01,32,3.00
2022,04,17,01,33,3.00
2022,04,17,01,34,3.30
2022,04,17,01,35,3.70
2022,04,17,01,36,3.50
2022,04,17,01,37,2.10
2022,04,17,01,38,3.40
2022,04,17,01,39,1.70
2022,04,17,01,40,1.60
2022,04,17,01,41,2.50
2022,04,17,01,42,3.60
2022,04,17,01,43,4.80
2022,04,17,01,44,5.20
2022,04,17,01,45,6.30
2022,04,17,01,46,8.50
2022,04,17,01,47,6.10
2022,04,17,01,48,3.10
2022,04,17,01,49,3.80
2022,04,17,01,50,4.80
2022,04,17,01,51,3.70
2022,04,17,01,52,6.40
2022,04,17,01,53,6.00
2022,04,17,01,54,3.00
2022,04,17,01,55,7.90
2022,04,17,01,56,6.60
2022,04,17,01,57,3.90
2022,04,17,01,58,5.30
2022,04,17,01,59,6.70
2022,04,17,02,00,3.90
2022,04,17,02,01,2.50
2022,04,17,02,02,4.50
2022,04,17,02,03,6.00
2022,04,17,02,04,4.60
2022,04,17,02,05,3.70
2022,04,17,02,06,5.20
2022,04,17,02,07,4.90
2022,04,17,02,08,4.10
2022,04,17,02,09,4.00
2022,04,17,02,10,2.40
2022,04,17,02,11,3.80
2022,04,17,02,12,3.60
2022,04,17,02,13,1.30
2022,04,17,02,14,3.40
2022,04,17,02,15,3.80
2022,04,17,02,16,4.10
2022,04,17,02,17,2.70
2022,04,17,02,18,5.50
2022,04,17,02,19,6.90
2022,04,17,02,20,5.20
2022,04,17,02,21,3.80
2022,04,17,02,22,4.80
2022,04,17,02,23,7.50
2022,04,17,02,24,7.10
2022,04,17,02,25,6.60
2022,04,17,02,26,9.40
2022,04,17,02,27,8.90
2022,04,17,02,28,9.00
2022,04,17,02,29,9.70
2022,04,17,02,30,10.40
2022,04,17,02,31,10.60
2022,04,17,02,32,10.90
2022,04,17,02,33,7.60
2022,04,17,02,34,6.10
2022,04,17,02,35,6.70
2022,04,17,02,36,6.30
2022,04,17,02,37,5.00
2022,04,17,02,38,5.50
2022,04,17,02,39,6.10
2022,04,17,02,40,5.00
2022,04,17,02,41,7.90
2022,04,17,02,42,9.10
2022,04,17,02,43,7.30
2022,04,17,02,44,4.60
2022,04,17,02,45,6.50
2022,04,17,02,46,10.50
2022,04,17,02,47,10.00
2022,04,17,02,48,9.30
2022,04,17,02,49,10.00
2022,04,17,02,50,8.80
2022,04,17,02,51,7.70
2022,04,17,02,52,8.10
2022,04,17,02,53,6.40
2022,04,17,02,54,5.80
2022,04,17,02,55,7.00
2022,04,17,02,56,6.20
2022,04,17,02,57,7.60
2022,04,17,02,58,7.70
2022,04,17,02,59,5.20
2022,04,17,03,00,4.90
2022,04,17,03,01,7.10
2022,04,17,03,02,7.20
2022,04,17,03,03,6.70
2022,04,17,03,04,5.60
2022,04,17,03,05,6.00
2022,04,17,03,06,4.80
2022,04,17,03,07,7.50
2022,04,17,03,08,5.80
2022,04,17,03,09,6.80
2022,04,17,03,10,4.90
2022,04,17,03,11,6.00
2022,04,17,03,12,6.80
2022,04,17,03,13,4.30
2022,04,17,03,14,4.10
2022,04,17,03,15,3.40
2022,04,17,03,16,3.60
2022,04,17,03,17,3.30
2022,04,17,03,18,3.40
2022,04,17,03,19,3.40
2022,04,17,03,20,3.50
2022,04,17,03,21,4.30
2022,04,17,03,22,3.00
2022,04,17,03,23,3.10
2022,04,17,03,24,3.60
2022,04,17,03,25,3.70
2022,04,17,03,26,3.00
2022,04,17,03,27,3.30
2022,04,17,03,28,3.00
2022,04,17,03,29,3.00
2022,04,17,03,30,2.40
2022,04,17,03,31,3.30
2022,04,17,03,32,3.40
2022,04,17,03,33,3.50
2022,04,17,03,34,3.30
2022,04,17,03,35,3.30
2022,04,17,03,36,3.60
2022,04,17,03,37,4.90
2022,04,17,03,38,4.20
2022,04,17,03,39,5.20
2022,04,17,03,40,5.70
2022,04,17,03,41,4.90
2022,04,17,03,42,4.60
2022,04,17,03,43,3.20
2022,04,17,03,44,3.60
2022,04,17,03,45,3.70
2022,04,17,03,46,3.40
2022,04,17,03,47,3.10
2022,04,17,03,48,2.40
2022,04,17,03,49,2.30
2022,04,17,03,50,3.00
2022,04,17,03,51,2.90
2022,04,17,03,52,3.00
2022,04,17,03,53,2.70
2022,04,17,03,54,2.80
2022,04,17,03,55,2.70
2022,04,17,03,56,2.40
2022,04,17,03,57,2.60
2022,04,17,03,58,2.40
2022,04,17,03,59,2.50
2022,04,17,04,00,2.60
2022,04,17,04,01,2.70
2022,04,17,04,02,3.20
2022,04,17,04,03,3.40
2022,04,17,04,04,2.70
2022,04,17,04,05,2.70
2022,04,17,04,06,3.30
2022,04,17,04,07,3.70
2022,04,17,04,08,4.10
2022,04,17,04,09,3.30
2022,04,17,04,10,4.10
2022,04,17,04,11,4.00
2022,04,17,04,12,4.00
2022,04,17,04,13,3.30
2022,04,17,04,14,3.10
2022,04,17,04,15,2.30
2022,04,17,04,16,2.90
2022,04,17,04,17,4.30
2022,04,17,04,18,4.00
2022,04,17,04,19,3.40
2022,04,17,04,20,3.00
2022,04,17,04,21,3.60
2022,04,17,04,22,3.50
2022,04,17,04,23,2.90
2022,04,17,04,24,3.40
2022,04,17,04,25,2.50
2022,04,17,04,26,3.20
2022,04,17,04,27,2.50
2022,04,17,04,28,3.40
2022,04,17,04,29,3.30
2022,04,17,04,30,2.00
2022,04,17,04,31,1.60
2022,04,17,04,32,0.10
2022,04,17,04,33,0.30
2022,04,17,04,34,0.00
2022,04,17,04,35,0.00
2022,04,17,04,36,0.20
2022,04,17,04,37,0.10
2022,04,17,04,38,0.50
2022,04,17,04,39,1.70
2022,04,17,04,40,2.50
2022,04,17,04,41,3.40
2022,04,17,04,42,3.30
2022,04,17,04,43,3.10
2022,04,17,04,44,3.10
2022,04,17,04,45,2.80
2022,04,17,04,46,2.90
2022,04,17,04,47,2.60
2022,04,17,04,48,2.70
2022,04,17,04,49,2.70
2022,04,17,04,50,2.50
2022,04,17,04,51,2.10
2022,04,17,04,52,2.50
2022,04,17,04,53,2.40
2022,04,17,04,54,2.60
2022,04,17,04,55,2.10
2022,04,17,04,56,3.00
2022,04,17,04,57,2.70
2022,04,17,04,58,3.40
2022,04,17,04,59,3.20
2022,04,17,05,00,2.90
2022,04,17,05,01,3.00
2022,04,17,05,02,3.40
2022,04,17,05,03,3.30
2022,04,17,05,04,3.20
2022,04,17,05,05,4.50
2022,04,17,05,06,4.60
2022,04,17,05,07,3.60
2022,04,17,05,08,2.80
2022,04,17,05,09,1.70
2022,04,17,05,10,1.80
2022,04,17,05,11,1.90
2022,04,17,05,12,1.80
2022,04,17,05,13,2.10
2022,04,17,05,14,1.60
2022,04,17,05,15,0.90
2022,04,17,05,16,0.50
2022,04,17,05,17,0.00
2022,04,17,05,18,0.00
2022,04,17,05,19,0.00
2022,04,17,05,20,0.00
2022,04,17,05,21,0.40
2022,04,17,05,22,1.30
2022,04,17,05,23,2.30
2022,04,17,05,24,2.80
2022,04,17,05,25,1.90
2022,04,17,05,26,1.60
2022,04,17,05,27,2.00
2022,04,17,05,28,1.20
2022,04,17,05,29,1.00
2022,04,17,05,30,0.10
2022,04,17,05,31,1.50
2022,04,17,05,32,1.30
2022,04,17,05,33,1.90
2022,04,17,05,34,2.00
2022,04,17,05,35,2.80
2022,04,17,05,36,2.10
2022,04,17,05,37,2.00
2022,04,17,05,38,2.10
2022,04,17,05,39,2.20
2022,04,17,05,40,0.70
2022,04,17,05,41,0.30
2022,04,17,05,42,0.50
2022,04,17,05,43,0.50
2022,04,17,05,44,1.80
2022,04,17,05,45,2.60
2022,04,17,05,46,2.40
2022,04,17,05,47,1.90
2022,04,17,05,48,0.90
2022,04,17,05,49,0.50
2022,04,17,05,50,1.00
2022,04,17,05,51,2.20
2022,04,17,05,52,2.20
2022,04,17,05,53,2.70
2022,04,17,05,54,2.20
2022,04,17,05,55,2.30
2022,04,17,05,56,3.20
2022,04,17,05,57,4.30
2022,04,17,05,58,3.30
2022,04,17,05,59,3.30
2022,04,17,06,00,2.40
2022,04,17,06,01,2.00
2022,04,17,06,02,1.10
2022,04,17,06,03,1.30
2022,04,17,06,04,0.40
2022,04,17,06,05,0.80
2022,04,17,06,06,0.30
2022,04,17,06,07,0.20
2022,04,17,06,08,0.00
2022,04,17,06,09,0.00
2022,04,17,06,10,0.00
2022,04,17,06,11,1.10
2022,04,17,06,12,1.50
2022,04,17,06,13,1.20
2022,04,17,06,14,0.00
2022,04,17,06,15,0.00
2022,04,17,06,16,1.30
2022,04,17,06,17,1.80
2022,04,17,06,18,2.10
2022,04,17,06,19,3.50
2022,04,17,06,20,3.60
2022,04,17,06,21,3.40
2022,04,17,06,22,3.20
2022,04,17,06,23,2.90
2022,04,17,06,24,4.40
2022,04,17,06,25,3.10
2022,04,17,06,26,3.20
2022,04,17,06,27,3.50
2022,04,17,06,28,2.20
2022,04,17,06,29,2.50
2022,04,17,06,30,1.30
2022,04,17,06,31,0.40
2022,04,17,06,32,0.50
2022,04,17,06,33,0.10
2022,04,17,06,34,0.00
2022,04,17,06,35,1.50
2022,04,17,06,36,2.80
2022,04,17,06,37,4.80
2022,04,17,06,38,4.30
2022,04,17,06,39,4.70
2022,04,17,06,40,4.60
2022,04,17,06,41,3.90
2022,04,17,06,42,5.30
2022,04,17,06,43,4.80
2022,04,17,06,44,4.20
2022,04,17,06,45,2.40
2022,04,17,06,46,2.00
2022,04,17,06,47,0.90
2022,04,17,06,48,0.10
2022,04,17,06,49,0.00
2022,04,17,06,50,0.00
2022,04,17,06,51,0.00
2022,04,17,06,52,0.00
2022,04,17,06,53,1.10
2022,04,17,06,54,0.60
2022,04,17,06,55,1.70
2022,04,17,06,56,2.40
2022,04,17,06,57,2.60
2022,04,17,06,58,2.10
2022,04,17,06,59,1.70
2022,04,17,07,00,1.40
2022,04,17,07,01,0.30
2022,04,17,07,02,0.00
2022,04,17,07,03,0.00
2022,04,17,07,04,0.00
2022,04,17,07,05,0.10
2022,04,17,07,06,0.00
2022,04,17,07,07,0.00
2022,04,17,07,08,0.20
2022,04,17,07,09,0.00
2022,04,17,07,10,0.00
2022,04,17,07,11,0.00
2022,04,17,07,12,0.90
2022,04,17,07,13,0.70
2022,04,17,07,14,0.00
2022,04,17,07,15,0.00
2022,04,17,07,16,0.00
2022,04,17,07,17,1.10
2022,04,17,07,18,3.10
2022,04,17,07,19,2.80
2022,04,17,07,20,1.10
2022,04,17,07,21,0.00
2022,04,17,07,22,0.10
2022,04,17,07,23,2.50
2022,04,17,07,24,3.00
2022,04,17,07,25,0.20
2022,04,17,07,26,0.00
2022,04,17,07,27,0.00
2022,04,17,07,28,0.00
2022,04,17,07,29,0.00
2022,04,17,07,30,0.00
2022,04,17,07,31,0.00
2022,04,17,07,32,0.10
2022,04,17,07,33,1.10
2022,04,17,07,34,0.00
2022,04,17,07,35,0.00
2022,04,17,07,36,0.00
2022,04,17,07,37,0.00
2022,04,17,07,38,0.00
2022,04,17,07,39,0.00
2022,04,17,07,40,0.00
2022,04,17,07,41,0.00
2022,04,17,07,42,0.00
2022,04,17,07,43,0.00
2022,04,17,07,44,0.40
2022,04,17,07,45,2.30
2022,04,17,07,46,2.80
2022,04,17,07,47,2.20
2022,04,17,07,48,1.40
2022,04,17,07,49,1.80
2022,04,17,07,50,0.80
2022,04,17,07,51,0.00
2022,04,17,07,52,0.10
2022,04,17,07,53,0.90
2022,04,17,07,54,0.40
2022,04,17,07,55,0.60
2022,04,17,07,56,3.80
2022,04,17,07,57,2.10
2022,04,17,07,58,1.70
2022,04,17,07,59,0.90
2022,04,17,08,00,5.30
2022,04,17,08,01,5.10
2022,04,17,08,02,4.10
2022,04,17,08,03,6.40
2022,04,17,08,04,5.20
2022,04,17,08,05,7.90
2022,04,17,08,06,3.50
2022,04,17,08,07,4.10
2022,04,17,08,08,2.90
2022,04,17,08,09,5.40
2022,04,17,08,10,7.80
2022,04,17,08,11,4.30
2022,04,17,08,12,5.90
2022,04,17,08,13,4.00
2022,04,17,08,14,6.40
2022,04,17,08,15,3.60
2022,04,17,08,16,2.50
2022,04,17,08,17,2.80
2022,04,17,08,18,3.70
2022,04,17,08,19,3.40
2022,04,17,08,20,2.90
2022,04,17,08,21,2.40
2022,04,17,08,22,0.80
2022,04,17,08,23,1.80
2022,04,17,08,24,4.50
2022,04,17,08,25,1.90
2022,04,17,08,26,1.30
2022,04,17,08,27,0.40
2022,04,17,08,28,3.30
2022,04,17,08,29,2.30
2022,04,17,08,30,0.90
2022,04,17,08,31,1.70
2022,04,17,08,32,2.20
2022,04,17,08,33,2.50
2022,04,17,08,34,3.70
2022,04,17,08,35,2.00
2022,04,17,08,36,3.00
2022,04,17,08,37,2.30
2022,04,17,08,38,3.30
2022,04,17,08,39,4.50
2022,04,17,08,40,4.60
2022,04,17,08,41,8.20
2022,04,17,08,42,6.80
2022,04,17,08,43,7.50
2022,04,17,08,44,11.20
2022,04,17,08,45,8.50
2022,04,17,08,46,12.20
2022,04,17,08,47,9.10
2022,04,17,08,48,8.50
2022,04,17,08,49,12.70
2022,04,17,08,50,13.50
2022,04,17,08,51,14.80
2022,04,17,08,52,12.50
2022,04,17,08,53,17.60
2022,04,17,08,54,21.50
2022,04,17,08,55,19.70
2022,04,17,08,56,18.20
2022,04,17,08,57,21.50
2022,04,17,08,58,18.90
2022,04,17,08,59,19.00
2022,04,17,09,00,18.40
2022,04,17,09,01,21.10
2022,04,17,09,02,20.40
2022,04,17,09,03,23.00
2022,04,17,09,04,19.10
2022,04,17,09,05,21.50
2022,04,17,09,06,24.10
2022,04,17,09,07,20.60
2022,04,17,09,08,20.80
2022,04,17,09,09,21.10
2022,04,17,09,10,24.60
2022,04,17,09,11,23.60
2022,04,17,09,12,27.70
2022,04,17,09,13,21.60
2022,04,17,09,14,22.70
2022,04,17,09,15,23.70
2022,04,17,09,16,23.60
2022,04,17,09,17,25.30
2022,04,17,09,18,24.90
2022,04,17,09,19,27.90
2022,04,17,09,20,26.00
2022,04,17,09,21,22.20
2022,04,17,09,22,24.00
2022,04,17,09,23,25.20
2022,04,17,09,24,24.20
2022,04,17,09,25,28.90
2022,04,17,09,26,28.50
2022,04,17,09,27,24.40
2022,04,17,09,28,24.40
2022,04,17,09,29,26.90
2022,04,17,09,30,26.80
2022,04,17,09,31,25.70
2022,04,17,09,32,24.70
2022,04,17,09,33,22.30
2022,04,17,09,34,25.30
2022,04,17,09,35,22.90
2022,04,17,09,36,22.90
2022,04,17,09,37,26.20
2022,04,17,09,38,24.40
2022,04,17,09,39,24.90
2022,04,17,09,40,25.70
2022,04,17,09,41,22.70
2022,04,17,09,42,23.50
2022,04,17,09,43,24.00
2022,04,17,09,44,23.60
2022,04,17,09,45,22.00
2022,04,17,09,46,22.50
2022,04,17,09,47,20.30
2022,04,17,09,48,24.40
2022,04,17,09,49,24.80
2022,04,17,09,50,20.90
2022,04,17,09,51,23.10
2022,04,17,09,52,24.50
2022,04,17,09,53,25.50
2022,04,17,09,54,23.20
2022,04,17,09,55,23.30
2022,04,17,09,56,21.80
2022,04,17,09,57,23.20
2022,04,17,09,58,23.30
2022,04,17,09,59,18.90
2022,04,17,10,00,19.80
2022,04,17,10,01,19.70
2022,04,17,10,02,19.90
2022,04,17,10,03,19.10
2022,04,17,10,04,20.60
2022,04,17,10,05,19.40
2022,04,17,10,06,21.10
2022,04,17,10,07,16.10
2022,04,17,10,08,18.80
2022,04,17,10,09,18.60
2022,04,17,10,10,17.00
2022,04,17,10,11,22.00
2022,04,17,10,12,20.20
2022,04,17,10,13,18.30
2022,04,17,10,14,17.90
2022,04,17,10,15,19.40
2022,04,17,10,16,18.50
2022,04,17,10,17,16.00
2022,04,17,10,18,18.30
2022,04,17,10,19,16.70
2022,04,17,10,20,13.70
2022,04,17,10,21,16.20
2022,04,17,10,22,14.50
2022,04,17,10,23,13.40
2022,04,17,10,24,15.70
2022,04,17,10,25,9.60
2022,04,17,10,26,12.30
2022,04,17,10,27,17.30
2022,04,17,10,28,16.20
2022,04,17,10,29,16.80
2022,04,17,10,30,16.40
2022,04,17,10,31,16.60
2022,04,17,10,32,15.70
2022,04,17,10,33,16.50
2022,04,17,10,34,18.50
2022,04,17,10,35,16.20
2022,04,17,10,36,15.40
2022,04,17,10,37,14.50
2022,04,17,10,38,15.60
2022,04,17,10,39,16.30
2022,04,17,10,40,15.60
2022,04,17,10,41,12.50
2022,04,17,10,42,13.40
2022,04,17,10,43,15.00
2022,04,17,10,44,13.10
2022,04,17,10,45,12.90
2022,04,17,10,46,13.40
2022,04,17,10,47,13.60
2022,04,17,10,48,13.40
2022,04,17,10,49,12.10
2022,04,17,10,50,9.80
2022,04,17,10,51,14.60
2022,04,17,10,52,14.20
2022,04,17,10,53,8.90
2022,04,17,10,54,11.10
2022,04,17,10,55,12.50
2022,04,17,10,56,10.30
2022,04,17,10,57,9.10
2022,04,17,10,58,10.80
2022,04,17,10,59,12.30
2022,04,17,11,00,11.30
2022,04,17,11,01,10.00
2022,04,17,11,02,10.60
2022,04,17,11,03,8.40
2022,04,17,11,04,13.00
2022,04,17,11,05,15.30
2022,04,17,11,06,14.10
2022,04,17,11,07,11.70
2022,04,17,11,08,10.10
2022,04,17,11,09,12.00
2022,04,17,11,10,12.50
2022,04,17,11,11,12.30
2022,04,17,11,12,12.40
2022,04,17,11,13,13.40
2022,04,17,11,14,11.80
2022,04,17,11,15,9.80
2022,04,17,11,16,11.90
2022,04,17,11,17,11.90
2022,04,17,11,18,11.70
2022,04,17,11,19,12.20
2022,04,17,11,20,12.00
2022,04,17,11,21,14.20
2022,04,17,11,22,12.20
2022,04,17,11,23,12.10
2022,04,17,11,24,12.20
2022,04,17,11,25,10.00
2022,04,17,11,26,8.90
2022,04,17,11,27,7.70
2022,04,17,11,28,11.30
2022,04,17,11,29,10.70
2022,04,17,11,30,10.60
2022,04,17,11,31,11.60
2022,04,17,11,32,12.10
2022,04,17,11,33,11.10
2022,04,17,11,34,10.70
2022,04,17,11,35,8.60
2022,04,17,11,36,10.10
2022,04,17,11,37,11.60
2022,04,17,11,38,10.10
2022,04,17,11,39,7.50
2022,04,17,11,40,10.10
2022,04,17,11,41,9.50
2022,04,17,11,42,11.60
2022,04,17,11,43,10.90
2022,04,17,11,44,13.10
2022,04,17,11,45,11.70
2022,04,17,11,46,12.30
2022,04,17,11,47,12.90
2022,04,17,11,48,10.70
2022,04,17,11,49,10.60
2022,04,17,11,50,10.40
2022,04,17,11,51,13.80
2022,04,17,11,52,11.70
2022,04,17,11,53,10.90
2022,04,17,11,54,10.40
2022,04,17,11,55,11.60
2022,04,17,11,56,13.90
2022,04,17,11,57,12.90
2022,04,17,11,58,10.80
2022,04,17,11,59,11.10
2022,04,17,12,00,12.50
2022,04,17,12,01,13.20
2022,04,17,12,02,13.50
2022,04,17,12,03,14.00
2022,04,17,12,04,12.90
2022,04,17,12,05,12.70
2022,04,17,12,06,12.30
2022,04,17,12,07,10.90
2022,04,17,12,08,10.90
2022,04,17,12,09,12.50
2022,04,17,12,10,11.30
2022,04,17,12,11,12.50
2022,04,17,12,12,12.50
2022,04,17,12,13,11.50
2022,04,17,12,14,12.20
2022,04,17,12,15,12.40
2022,04,17,12,16,11.70
2022,04,17,12,17,10.10
2022,04,17,12,18,10.20
2022,04,17,12,19,10.40
2022,04,17,12,20,9.90
2022,04,17,12,21,9.10
2022,04,17,12,22,9.10
2022,04,17,12,23,9.40
2022,04,17,12,24,10.70
2022,04,17,12,25,9.70
2022,04,17,12,26,10.00
2022,04,17,12,27,9.70
2022,04,17,12,28,9.70
2022,04,17,12,29,10.60
2022,04,17,12,30,11.00
2022,04,17,12,31,11.90
2022,04,17,12,32,10.90
2022,04,17,12,33,12.00
2022,04,17,12,34,10.70
2022,04,17,12,35,11.30
2022,04,17,12,36,11.60
2022,04,17,12,37,11.90
2022,04,17,12,38,12.00
2022,04,17,12,39,11.90
2022,04,17,12,40,11.20
2022,04,17,12,41,12.20
2022,04,17,12,42,11.50
2022,04,17,12,43,10.20
2022,04,17,12,44,11.50
2022,04,17,12,45,9.10
2022,04,17,12,46,9.80
2022,04,17,12,47,10.80
2022,04,17,12,48,11.00
2022,04,17,12,49,10.10
2022,04,17,12,50,10.10
2022,04,17,12,51,9.80
2022,04,17,12,52,11.00
2022,04,17,12,53,11.00
2022,04,17,12,54,11.80
2022,04,17,12,55,11.60
2022,04,17,12,56,10.70
2022,04,17,12,57,10.50
2022,04,17,12,58,10.40
2022,04,17,12,59,9.80
2022,04,17,13,00,10.80
2022,04,17,13,01,8.10
2022,04,17,13,02,7.30
2022,04,17,13,03,8.10
2022,04,17,13,04,6.40
2022,04,17,13,05,7.30
2022,04,17,13,06,7.80
2022,04,17,13,07,9.10
2022,04,17,13,08,6.70
2022,04,17,13,09,7.40
2022,04,17,13,10,9.80
2022,04,17,13,11,9.30
2022,04,17,13,12,6.70
2022,04,17,13,13,6.40
2022,04,17,13,14,7.90
2022,04,17,13,15,8.90
2022,04,17,13,16,9.90
2022,04,17,13,17,9.50
2022,04,17,13,18,9.20
2022,04,17,13,19,8.40
2022,04,17,13,20,7.10
2022,04,17,13,21,7.90
2022,04,17,13,22,8.00
2022,04,17,13,23,8.20
2022,04,17,13,24,9.20
2022,04,17,13,25,8.10
2022,04,17,13,26,9.60
2022,04,17,13,27,9.70
2022,04,17,13,28,9.20
2022,04,17,13,29,9.90
2022,04,17,13,30,9.50
2022,04,17,13,31,8.30
2022,04,17,13,32,5.90
2022,04,17,13,33,5.80
2022,04,17,13,34,7.00
2022,04,17,13,35,8.20
2022,04,17,13,36,7.20
2022,04,17,13,37,6.40
2022,04,17,13,38,5.20
2022,04,17,13,39,5.20
2022,04,17,13,40,5.40
2022,04,17,13,41,5.20
2022,04,17,13,42,4.90
2022,04,17,13,43,4.20
2022,04,17,13,44,4.60
2022,04,17,13,45,5.10
2022,04,17,13,46,5.20
2022,04,17,13,47,4.70
2022,04,17,13,48,4.60
2022,04,17,13,49,4.30
2022,04,17,13,50,4.50
2022,04,17,13,51,4.10
2022,04,17,13,52,2.90
2022,04,17,13,53,2.10
2022,04,17,13,54,1.70
2022,04,17,13,55,3.60
2022,04,17,13,56,5.30
2022,04,17,13,57,5.70
2022,04,17,13,58,4.40
2022,04,17,13,59,5.30
2022,04,17,14,00,4.40
2022,04,17,14,01,4.00
2022,04,17,14,02,3.60
2022,04,17,14,03,3.00
2022,04,17,14,04,2.00
2022,04,17,14,05,3.10
2022,04,17,14,06,3.80
2022,04,17,14,07,3.70
2022,04,17,14,08,4.40
2022,04,17,14,09,4.30
2022,04,17,14,10,3.80
2022,04,17,14,11,3.70
2022,04,17,14,12,3.20
2022,04,17,14,13,2.30
2022,04,17,14,14,2.80
2022,04,17,14,15,2.60
2022,04,17,14,16,2.20
2022,04,17,14,17,2.60
2022,04,17,14,18,1.80
2022,04,17,14,19,2.40
2022,04,17,14,20,2.60
2022,04,17,14,21,2.40
2022,04,17,14,22,2.60
2022,04,17,14,23,3.30
2022,04,17,14,24,4.30
2022,04,17,14,25,3.00
2022,04,17,14,26,4.50
2022,04,17,14,27,4.50
2022,04,17,14,28,2.50
2022,04,17,14,29,2.90
2022,04,17,14,30,3.90
2022,04,17,14,31,2.90
2022,04,17,14,32,3.60
2022,04,17,14,33,3.90
2022,04,17,14,34,4.40
2022,04,17,14,35,4.20
2022,04,17,14,36,4.30
2022,04,17,14,37,5.30
2022,04,17,14,38,6.40
2022,04,17,14,39,5.50
2022,04,17,14,40,4.40
2022,04,17,14,41,4.90
2022,04,17,14,42,4.20
2022,04,17,14,43,4.10
2022,04,17,14,44,2.60
2022,04,17,14,45,5.40
2022,04,17,14,46,5.10
2022,04,17,14,47,4.80
2022,04,17,14,48,4.20
2022,04,17,14,49,4.20
2022,04,17,14,50,3.90
2022,04,17,14,51,3.50
2022,04,17,14,52,4.80
2022,04,17,14,53,5.50
2022,04,17,14,54,5.60
2022,04,17,14,55,5.10
2022,04,17,14,56,4.50
2022,04,17,14,57,4.40
2022,04,17,14,58,3.50
2022,04,17,14,59,3.10
2022,04,17,15,00,3.50
2022,04,17,15,01,4.20
2022,04,17,15,02,3.00
2022,04,17,15,03,3.90
2022,04,17,15,04,3.80
2022,04,17,15,05,4.20
2022,04,17,15,06,5.10
2022,04,17,15,07,4.90
2022,04,17,15,08,4.60
2022,04,17,15,09,3.90
2022,04,17,15,10,4.20
2022,04,17,15,11,3.90
2022,04,17,15,12,2.90
2022,04,17,15,13,1.80
2022,04,17,15,14,1.10
2022,04,17,15,15,0.20
2022,04,17,15,16,1.70
2022,04,17,15,17,3.70
2022,04,17,15,18,4.80
2022,04,17,15,19,4.70
2022,04,17,15,20,4.30
2022,04,17,15,21,3.90
2022,04,17,15,22,3.80
2022,04,17,15,23,4.00
2022,04,17,15,24,5.00
2022,04,17,15,25,5.10
2022,04,17,15,26,4.30
2022,04,17,15,27,0.40
2022,04,17,15,28,1.10
2022,04,17,15,29,2.70
2022,04,17,15,30,3.60
2022,04,17,15,31,3.50
2022,04,17,15,32,4.00
2022,04,17,15,33,3.60
2022,04,17,15,34,3.10
2022,04,17,15,35,2.70
2022,04,17,15,36,3.20
2022,04,17,15,37,3.00
2022,04,17,15,38,1.70
2022,04,17,15,39,1.60
2022,04,17,15,40,0.90
2022,04,17,15,41,2.00
2022,04,17,15,42,1.60
2022,04,17,15,43,1.40
2022,04,17,15,44,2.30
2022,04,17,15,45,3.30
2022,04,17,15,46,3.70
2022,04,17,15,47,3.60
2022,04,17,15,48,4.10
2022,04,17,15,49,3.60
2022,04,17,15,50,4.00
2022,04,17,15,51,4.10
2022,04,17,15,52,4.30
2022,04,17,15,53,3.40
2022,04,17,15,54,3.10
2022,04,17,15,55,3.60
2022,04,17,15,56,3.40
2022,04,17,15,57,3.50
2022,04,17,15,58,2.80
2022,04,17,15,59,2.80
2022,04,17,16,00,2.40
2022,04,17,16,01,2.10
2022,04,17,16,02,2.00
2022,04,17,16,03,1.80
2022,04,17,16,04,2.90
2022,04,17,16,05,3.10
2022,04,17,16,06,3.40
2022,04,17,16,07,3.10
2022,04,17,16,08,2.70
2022,04,17,16,09,2.40
2022,04,17,16,10,3.30
2022,04,17,16,11,2.10
2022,04,17,16,12,2.00
2022,04,17,16,13,1.40
2022,04,17,16,14,0.80
2022,04,17,16,15,0.30
2022,04,17,16,16,0.10
2022,04,17,16,17,0.00
2022,04,17,16,18,0.00
2022,04,17,16,19,0.00
2022,04,17,16,20,0.00
2022,04,17,16,21,0.00
2022,04,17,16,22,0.00
2022,04,17,16,23,0.00
2022,04,17,16,24,0.00
2022,04,17,16,25,0.00
2022,04,17,16,26,0.00
2022,04,17,16,27,0.00
2022,04,17,16,28,0.00
2022,04,17,16,29,0.00
2022,04,17,16,30,0.30
2022,04,17,16,31,0.50
2022,04,17,16,32,1.00
2022,04,17,16,33,0.40
2022,04,17,16,34,0.00
2022,04,17,16,35,0.00
2022,04,17,16,36,0.00
2022,04,17,16,37,0.00
2022,04,17,16,38,0.60
2022,04,17,16,39,1.00
2022,04,17,16,40,4.90
2022,04,17,16,41,6.10
2022,04,17,16,42,6.10
2022,04,17,16,43,3.60
2022,04,17,16,44,2.20
2022,04,17,16,45,3.50
2022,04,17,16,46,4.00
2022,04,17,16,47,2.60
2022,04,17,16,48,1.50
2022,04,17,16,49,0.80
2022,04,17,16,50,3.80
2022,04,17,16,51,5.00
2022,04,17,16,52,5.70
2022,04,17,16,53,5.70
2022,04,17,16,54,4.90
2022,04,17,16,55,7.20
2022,04,17,16,56,8.00
2022,04,17,16,57,10.60
2022,04,17,16,58,10.40
2022,04,17,16,59,10.60
2022,04,17,17,00,9.20
2022,04,17,17,01,8.60
2022,04,17,17,02,8.50
2022,04,17,17,03,10.20
2022,04,17,17,04,8.20
2022,04,17,17,05,6.90
2022,04,17,17,06,6.80
2022,04,17,17,07,6.70
2022,04,17,17,08,5.90
2022,04,17,17,09,5.50
2022,04,17,17,10,5.10
2022,04,17,17,11,6.00
2022,04,17,17,12,5.30
2022,04,17,17,13,6.40
2022,04,17,17,14,5.50
2022,04,17,17,15,3.60
2022,04,17,17,16,4.20
2022,04,17,17,17,4.20
2022,04,17,17,18,5.40
2022,04,17,17,19,7.40
2022,04,17,17,20,9.00
2022,04,17,17,21,9.30
2022,04,17,17,22,9.50
2022,04,17,17,23,10.80
2022,04,17,17,24,10.70
2022,04,17,17,25,11.00
2022,04,17,17,26,10.30
2022,04,17,17,27,10.20
2022,04,17,17,28,13.10
2022,04,17,17,29,11.40
2022,04,17,17,30,11.70
2022,04,17,17,31,14.10
2022,04,17,17,32,14.90
2022,04,17,17,33,15.10
2022,04,17,17,34,15.20
2022,04,17,17,35,14.80
2022,04,17,17,36,14.00
2022,04,17,17,37,14.00
2022,04,17,17,38,13.20
2022,04,17,17,39,12.80
2022,04,17,17,40,12.40
2022,04,17,17,41,13.00
2022,04,17,17,42,13.70
2022,04,17,17,43,13.30
2022,04,17,17,44,14.10
2022,04,17,17,45,15.10
2022,04,17,17,46,14.40
2022,04,17,17,47,14.70
2022,04,17,17,48,15.20
2022,04,17,17,49,14.50
2022,04,17,17,50,14.00
2022,04,17,17,51,12.00
2022,04,17,17,52,11.30
2022,04,17,17,53,14.40
2022,04,17,17,54,13.60